Find Beijing-3C 01

NORAD ID: 59805 Int'l Des: 2024-094 Owner: 21AT Country: CN operational
LEOCIRCULARRETROGRADESSO

Current View

Loading 3D Globe...

About Beijing-3C 01

Description loading...

Upcoming Passes

Passes for default location (London). Set your location on the main map for personalized predictions.

Altitude History

Loading altitude history...

Two-Line Element Set

1 59805U 24094A 26150.21843152 .00008961 00000-0 46304-3 0 9990
2 59805 97.3877 221.4849 0003412 254.3291 105.7566 15.16505029112442
Epoch: May 30, 2026 • Age: 6 hours

Current Status

Altitude 540.2 km
Velocity 7.59 km/s
Sub-Earth Point -68.06°S, 176.67°W
Launch Date May 20, 2024
Age 2 years
Type other

Technical Details

Classification Payload
Mass 1000.00 kg
Dry Mass 1000.00 kg
Total Mass 1000.00 kg
Length 1.00 m
Diameter 1.00 m
Span 5.00 m
Shape Hex cyl + 3 pan
Manufacturer DFHZ
Bus Type BJ3C
Phase Status In Orbit
Owner/State 21AT/CN

Most Searched